This is the latest recevied weather packets stored in our database for station/object ER1XDX-10. If no packets are shown the sender has not sent any weather packets the latest 10 day(s).
| Time | Temp. | Humidity | Pressure | Rain* | Wind** | Luminosity | Snow |
|---|---|---|---|---|---|---|---|
| 1777321954 | 20.56° C | 46% | 1015.7 hPa | - | - | - | - |
| 1777321054 | 20.56° C | 47% | 1015.9 hPa | - | - | - | - |
| 1777320154 | 20.56° C | 47% | 1015.8 hPa | - | - | - | - |
| 1777319253 | 20.56° C | 48% | 1015.9 hPa | - | - | - | - |
| 1777318353 | 20.56° C | 48% | 1016 hPa | - | - | - | - |
| 1777317453 | 20.56° C | 48% | 1015.9 hPa | - | - | - | - |
| 1777316552 | 20.56° C | 43% | 1016 hPa | - | - | - | - |
| 1777315652 | 20.56° C | 41% | 1015.9 hPa | - | - | - | - |
| 1777314752 | 20.56° C | 38% | 1015.8 hPa | - | - | - | - |
| 1777313852 | 20.56° C | 37% | 1015.9 hPa | - | - | - | - |
| 1777312952 | 20.56° C | 36% | 1015.7 hPa | - | - | - | - |
| 1777312052 | 20.56° C | 36% | 1015.6 hPa | - | - | - | - |
| 1777311152 | 20.56° C | 35% | 1015.5 hPa | - | - | - | - |
| 1777310252 | 20.56° C | 36% | 1015.4 hPa | - | - | - | - |
| 1777309352 | 20.56° C | 37% | 1015.2 hPa | - | - | - | - |
| 1777308452 | 20.56° C | 38% | 1015 hPa | - | - | - | - |
| 1777307552 | 20.56° C | 40% | 1015 hPa | - | - | - | - |
| 1777306651 | 20.56° C | 42% | 1015.1 hPa | - | - | - | - |
| 1777305751 | 20.56° C | 41% | 1014.9 hPa | - | - | - | - |
| 1777304851 | 20.56° C | 41% | 1015 hPa | - | - | - | - |
| 1777303951 | 20.56° C | 41% | 1015.2 hPa | - | - | - | - |
| 1777303051 | 20.56° C | 41% | 1015.2 hPa | - | - | - | - |
| 1777302151 | 20.56° C | 42% | 1015.3 hPa | - | - | - | - |
| 1777301251 | 20.56° C | 41% | 1015.2 hPa | - | - | - | - |
| 1777300351 | 20.56° C | 41% | 1015.3 hPa | - | - | - | - |
* Rain since midnight (hover to see other rain measurements)
** Current wind speed in m/s (hover to see current wind gust speed)